COSMOS 917 DEB, 35505

Orbit data source: Space-Track

COSMOS 917 DEB, 35505 is space debris originally from a launch on Thu, 16 Jun 1977 UTC launched from the Plesetsk Missile And Space Complex (PKMTR). Debris objects in space refer to the collection of defunct objects orbiting the Earth. Examples of debris include non-operational satellites, rocket bodies, and fragments generated from explosions, collisions, or faulty payload assembly.

Loading next visibility...
Identifier
35505, 1977-047S
Orbit
Molniya
Country
Flag of CISCIS
Related business
Manufacturer
Unknown
Mission
Spacecraft
Bus & Motor
Unknown
Mass
Unknown
Launch date (UTC)
1977-06-16 (49 years ago)
Launch vehicle
Unknown
Launch site
Plesetsk Missile And Space Complex (PKMTR)
Object type
Payload
Rocket body
Debris
Shape & HBR
Unknown shape, 0.6 m
Radar Cross Section
Medium (>0.1 m² and <1 m²)

Expand to show TLE details & history
Last TLE update: 2 days ago

TLE from 2 days ago
0 COSMOS 917 DEB
1 35505U 77047S   26171.42987766 -.00000033  00000-0  68519-3 0  9998
2 35505  59.9877 218.6936 7434918  63.2730 352.5176  2.01754402145966
Epoch: 2026-06-20T10:19Z
TLE epoch observation values (Epoch: 2026-06-20T10:19:01.429Z)
Latitude
-0.00012°
Longitude
155.30909°
Altitude
2,463.396 km
Speed
8.667 km/s
True Right ascension
14h 34m 50s
True Declination
0° 00' 00"
Sunlit
Object was in daylight at epoch
Visualization orbit readout
Latitude
Unknown
Longitude
Unknown
Altitude
Unknown
Speed
Unknown
Apparent Right ascension
Unknown
Apparent Declination
Unknown
Sunlit
N/A
Visualization observer readout
Local Sidereal Time
23:09:07
Azimuth
Unknown
Elevation
Unknown
Doppler factor
Unknown
Orbital elements
Apogee altitude
39,746.038 km
Perigee altitude
407.802 km
Semi-major axis
26,455.057 km
Eccentricity
0.74349
Inclination
59.9877°
RAAN
218.6936°
Arg. of periapsis
63.273°
True anomaly
296.96909°
Mean anomaly
352.5176°
Eccentric anomaly
333.53003°
Mean motion
0.50441 °/min
Orbital period
713.71 mins
BSTAR
0.00068519
Loading maneuver chart data...
Computing Atmospheric mass density...
Loading historical data...
Loading historical data...
Loading historical data...
Loading historical data...
Loading historical data...
Loading historical data...
Loading historical data...

Documentation

Showing up to 5 results
|